This is the latest recevied weather packets stored in our database for station/object WX4ET. If no packets are shown the sender has not sent any weather packets the latest 10 day(s).
| Time | Temp. | Humidity | Pressure | Rain* | Wind** | Luminosity | Snow |
|---|---|---|---|---|---|---|---|
| 1777948355 | 14.44° C | 80% | 1008.2 hPa | 0 mm | - | 0 W/m² | - |
| 1777948053 | 15° C | 81% | 1008.1 hPa | 0 mm | - | 0 W/m² | - |
| 1777947750 | 15° C | 81% | 1008.1 hPa | 0 mm | - | 0 W/m² | - |
| 1777947446 | 15° C | 80% | 1008.1 hPa | 0 mm | - | 0 W/m² | - |
| 1777947144 | 15° C | 80% | 1008.2 hPa | 0 mm | - | 0 W/m² | - |
| 1777946839 | 15° C | 79% | 1007.6 hPa | 0 mm | - | 0 W/m² | - |
| 1777946534 | 15° C | 79% | 1007.9 hPa | 0 mm | - | 0 W/m² | - |
| 1777946232 | 15.56° C | 78% | 1007.7 hPa | 0 mm | - | 0 W/m² | - |
| 1777945929 | 15.56° C | 78% | 1008 hPa | 0 mm | - | 0 W/m² | - |
| 1777945626 | 16.11° C | 77% | 1007.7 hPa | 0 mm | - | 0 W/m² | - |
| 1777945323 | 16.11° C | 75% | 1007.5 hPa | 0 mm | - | 0 W/m² | - |
| 1777945020 | 16.11° C | 75% | 1007.7 hPa | 0 mm | - | 0 W/m² | - |
| 1777944717 | 16.67° C | 74% | 1007.6 hPa | 0 mm | - | 0 W/m² | - |
| 1777944415 | 16.67° C | 74% | 1007.4 hPa | 0 mm | - | 0 W/m² | - |
| 1777944112 | 16.67° C | 73% | 1007.5 hPa | 0 mm | - | 0 W/m² | - |
| 1777943813 | 17.22° C | 72% | 1007.4 hPa | 0 mm | - | 0 W/m² | - |
| 1777943510 | 17.78° C | 70% | 1007.3 hPa | 0 mm | - | 0 W/m² | - |
| 1777943205 | 17.78° C | 70% | 1007.4 hPa | 0 mm | - | 0 W/m² | - |
| 1777942903 | 17.78° C | 69% | 1007.4 hPa | 0 mm | - | 0 W/m² | - |
| 1777942598 | 18.33° C | 68% | 1007.5 hPa | 0 mm | - | 0 W/m² | - |
| 1777942296 | 18.89° C | 65% | 1007.2 hPa | 0 mm | - | 0 W/m² | - |
| 1777941993 | 18.89° C | 65% | 1007.1 hPa | 0 mm | - | 0 W/m² | - |
| 1777941689 | 19.44° C | 63% | 1007.2 hPa | 0 mm | - | 0 W/m² | - |
| 1777941387 | 20° C | 61% | 1007.1 hPa | 0 mm | - | 0 W/m² | - |
| 1777941084 | 20° C | 61% | 1007 hPa | 0 mm | - | 0 W/m² | - |
* Rain latest hour (hover to see other rain measurements)
** Current wind speed in m/s (hover to see current wind gust speed)